Pagosa Springs, CO

7:41 PM MST on February 11, 2016 (GMT -0700)
Pagosa Springs

Weather History for KPSO - October, 2012

Change the Weather History Date:

Sunday, October 21, 2012

  Actual Average (KDRO) Record (KDRO)
Temperature  
Mean Temperature 46 °F 45 °F  
Max Temperature 62 °F 61 °F 78 °F (2003)
Min Temperature 30 °F 29 °F 19 °F (1996)
Degree Days  
Heating Degree Days 19 20  
Month to date heating degree days 340  
Since 1 July heating degree days 564  
Cooling Degree Days 0 0  
Month to date cooling degree days 0  
Year to date cooling degree days 243  
Moisture  
Dew Point 18 °F    
Average Humidity 35    
Maximum Humidity 59    
Minimum Humidity 20    
Precipitation  
Precipitation 0.00 in 0.04 in 0.61 in (1978)
Month to date precipitation 0.98  
Year to date precipitation 12.86  
Sea Level Pressure  
Sea Level Pressure 30.07 in    
Wind  
Wind Speed 2 mph (SSW)    
Max Wind Speed 15 mph    
Max Gust Speed 22 mph    
Visibility 10 miles    
Events      
T = Trace of Precipitation, MM = Missing Value Source: NWS Daily Summary

Daily Weather History Graph

Daily Weather History Graph

Search for Another Location

Airport or City:

Trip Planner

Search our weather history database for the weather conditions in past years. The results will help you decide how hot, cold, wet, or windy it might be!

Date:

Astronomy

Oct. 21, 2012 Rise Set
Actual Time 7:22 AM MDT 6:22 PM MDT
Civil Twilight 6:55 AM MDT 6:49 PM MDT
Nautical Twilight 6:25 AM MDT 7:19 PM MDT
Astronomical Twilight 5:55 AM MDT 7:49 PM MDT
Moon 1:42 PM MDT (10/21) No Moon Set
Length of Visible Light 11h 53m
Length of Day
11h 00m
Waxing Crescent, 46% of the Moon is Illuminated
Oct 21
Waxing Crescent
Oct 21
First Quarter
Oct 29
Full
Nov 6
Last Quarter
Nov 13
New

Hourly Weather History & Observations

Time (MDT) Temp. Windchill Dew Point Humidity Pressure Visibility Wind Dir Wind Speed Gust Speed Precip Events Conditions
12:15 AM 36.0 °F - 9.0 °F 33% 30.05 in 10.0 mi Calm Calm - N/A   Clear
12:35 AM 36.3 °F - 9.3 °F 33% 30.05 in 10.0 mi Calm Calm - N/A   Clear
12:55 AM 35.6 °F - 9.3 °F 34% 30.04 in 10.0 mi Calm Calm - N/A   Clear
1:15 AM 36.9 °F - 10.6 °F 34% 30.05 in 10.0 mi Calm Calm - N/A   Clear
1:35 AM 36.7 °F - 9.5 °F 32% 30.05 in 10.0 mi Calm Calm - N/A   Clear
1:55 AM 35.2 °F - 11.5 °F 37% 30.05 in 10.0 mi Calm Calm - N/A   Clear
2:15 AM 36.0 °F - 10.2 °F 34% 30.05 in 10.0 mi Calm Calm - N/A   Clear
2:35 AM 32.2 °F - 11.3 °F 42% 30.05 in 10.0 mi Calm Calm - N/A   Clear
2:55 AM 32.9 °F - 11.3 °F 41% 30.06 in 10.0 mi Calm Calm - N/A   Clear
3:15 AM 32.4 °F - 11.5 °F 42% 30.06 in 10.0 mi Calm Calm - N/A   Clear
3:35 AM 33.1 °F - 12.2 °F 42% 30.06 in 10.0 mi Calm Calm - N/A   Clear
3:55 AM 33.1 °F - 11.8 °F 41% 30.05 in 10.0 mi Calm Calm - N/A   Clear
4:15 AM 34.0 °F - 11.5 °F 39% 30.05 in 10.0 mi Calm Calm - N/A   Clear
4:35 AM 32.2 °F - 12.6 °F 44% 30.05 in 10.0 mi Calm Calm - N/A   Clear
4:55 AM 32.7 °F - 12.4 °F 43% 30.05 in 10.0 mi Calm Calm - N/A   Clear
5:15 AM 33.4 °F - 12.9 °F 43% 30.07 in 10.0 mi Calm Calm - N/A   Clear
5:35 AM 34.0 °F - 12.6 °F 41% 30.07 in 10.0 mi Calm Calm - N/A   Clear
5:55 AM 31.5 °F - 13.5 °F 47% 30.07 in 10.0 mi Calm Calm - N/A   Clear
6:15 AM 30.9 °F - 13.1 °F 48% 30.07 in 10.0 mi Calm Calm - N/A   Clear
6:35 AM 32.2 °F - 13.1 °F 45% 30.08 in 10.0 mi Calm Calm - N/A   Clear
6:55 AM 31.3 °F - 13.1 °F 47% 30.08 in 10.0 mi Calm Calm - N/A   Clear
7:15 AM 31.5 °F - 13.5 °F 47% 30.09 in 10.0 mi Calm Calm - N/A   Clear
7:35 AM 31.1 °F 27.7 °F 13.6 °F 48% 30.09 in 10.0 mi NE 3.5 mph - N/A   Clear
7:55 AM 32.7 °F - 13.6 °F 45% 30.09 in 10.0 mi Calm Calm - N/A   Clear
8:15 AM 39.2 °F - 14.0 °F 36% 30.09 in 10.0 mi Calm Calm - N/A   Clear
8:35 AM 41.4 °F - 14.9 °F 34% 30.11 in 10.0 mi Calm Calm - N/A   Clear
8:55 AM 43.5 °F - 14.9 °F 32% 30.12 in 10.0 mi Calm Calm - N/A   Clear
9:15 AM 46.6 °F - 15.1 °F 28% 30.12 in 10.0 mi Calm Calm - N/A   Clear
9:35 AM 48.9 °F - 16.2 °F 27% 30.12 in 10.0 mi Calm Calm - N/A   Clear
9:55 AM 50.0 °F - 18.3 °F 29% 30.12 in 10.0 mi Calm Calm - N/A   Clear
10:15 AM 51.8 °F - 23.0 °F 33% 30.12 in 10.0 mi South 6.9 mph - N/A   Clear
10:35 AM 52.2 °F - 25.5 °F 36% 30.12 in 10.0 mi South 9.2 mph - N/A   Clear
10:55 AM 53.1 °F - 26.1 °F 35% 30.12 in 10.0 mi South 5.8 mph - N/A   Clear
11:15 AM 54.0 °F - 24.4 °F 32% 30.12 in 10.0 mi Calm Calm - N/A   Clear
11:35 AM 55.0 °F - 24.6 °F 31% 30.11 in 10.0 mi Calm Calm - N/A   Clear
11:55 AM 56.5 °F - 24.4 °F 29% 30.10 in 10.0 mi South 10.4 mph - N/A   Clear
12:15 PM 57.2 °F - 23.9 °F 28% 30.10 in 10.0 mi SW 8.1 mph - N/A   Clear
12:35 PM 58.6 °F - 22.8 °F 25% 30.09 in 10.0 mi SSW 10.4 mph 16.1 mph N/A   Clear
12:55 PM 59.0 °F - 22.6 °F 25% 30.09 in 10.0 mi South 8.1 mph - N/A   Clear
1:15 PM 59.2 °F - 23.0 °F 25% 30.07 in 10.0 mi SW 5.8 mph - N/A   Clear
1:35 PM 60.6 °F - 22.1 °F 23% 30.07 in 10.0 mi SSW 6.9 mph - N/A   Clear
1:55 PM 60.3 °F - 21.6 °F 23% 30.06 in 10.0 mi SW 15.0 mph 20.7 mph N/A   Clear
2:15 PM 61.7 °F - 20.8 °F 21% 30.06 in 10.0 mi SW 10.4 mph 20.7 mph N/A   Clear
2:35 PM 61.3 °F - 20.3 °F 21% 30.05 in 10.0 mi SW 10.4 mph 17.3 mph N/A   Clear
2:55 PM 61.7 °F - 20.5 °F 20% 30.05 in 10.0 mi SSW 12.7 mph 16.1 mph N/A   Clear
3:15 PM 61.9 °F - 21.0 °F 21% 30.05 in 10.0 mi SW 15.0 mph 18.4 mph N/A   Clear
3:35 PM 61.5 °F - 20.7 °F 21% 30.04 in 10.0 mi SSW 12.7 mph 18.4 mph N/A   Clear
3:55 PM 62.2 °F - 20.1 °F 20% 30.05 in 10.0 mi SSW 13.8 mph - N/A   Clear
4:15 PM 62.2 °F - 20.7 °F 20% 30.04 in 10.0 mi West 10.4 mph 18.4 mph N/A   Clear
4:35 PM 62.1 °F - 21.0 °F 21% 30.05 in 10.0 mi SW 11.5 mph 21.9 mph N/A   Clear
4:55 PM 62.6 °F - 20.8 °F 20% 30.05 in 10.0 mi SW 11.5 mph - N/A   Clear
5:15 PM 62.1 °F - 21.0 °F 21% 30.05 in 10.0 mi SW 10.4 mph - N/A   Clear
5:35 PM 61.7 °F - 21.2 °F 21% 30.05 in 10.0 mi SW 11.5 mph - N/A   Clear
5:55 PM 60.8 °F - 21.6 °F 22% 30.06 in 10.0 mi WSW 8.1 mph - N/A   Clear
6:15 PM 59.7 °F - 22.6 °F 24% 30.05 in 10.0 mi SW 10.4 mph - N/A   Clear
6:35 PM 58.5 °F - 23.0 °F 26% 30.07 in 10.0 mi SW 8.1 mph - N/A   Clear
6:55 PM 57.2 °F - 23.4 °F 27% 30.07 in 10.0 mi Calm Calm - N/A   Clear
7:15 PM 48.4 °F - 23.0 °F 37% 30.07 in 10.0 mi Calm Calm - N/A   Clear
7:35 PM 46.9 °F - 22.3 °F 38% 30.07 in 10.0 mi Calm Calm - N/A   Clear
7:55 PM 45.5 °F - 23.0 °F 41% 30.08 in 10.0 mi Calm Calm - N/A   Clear
8:15 PM 43.3 °F - 22.8 °F 44% 30.09 in 10.0 mi Calm Calm - N/A   Clear
8:35 PM 44.2 °F 42.7 °F 23.2 °F 43% 30.08 in 10.0 mi NE 3.5 mph - N/A   Clear
8:55 PM 42.8 °F - 22.3 °F 44% 30.09 in 10.0 mi Calm Calm - N/A   Clear
9:15 PM 42.1 °F - 23.2 °F 47% 30.09 in 10.0 mi Calm Calm - N/A   Clear
9:35 PM 44.2 °F 42.7 °F 23.0 °F 43% 30.09 in 10.0 mi NE 3.5 mph - N/A   Clear
9:55 PM 42.3 °F - 23.7 °F 48% 30.09 in 10.0 mi Calm Calm - N/A   Clear
10:15 PM 41.5 °F 39.6 °F 24.4 °F 51% 30.09 in 10.0 mi NE 3.5 mph - N/A   Clear
10:35 PM 39.7 °F - 24.1 °F 54% 30.09 in 10.0 mi Calm Calm - N/A   Clear
10:55 PM 41.0 °F - 24.1 °F 51% 30.09 in 10.0 mi Calm Calm - N/A   Clear
11:15 PM 38.8 °F - 23.5 °F 54% 30.09 in 10.0 mi Calm Calm - N/A   Clear
11:55 PM 36.7 °F - 23.5 °F 59% 30.09 in 10.0 mi Calm Calm - N/A   Clear